Regional Weather Roundup
Issued by NWS

Home | Current Version | Previous Version | Text Only | Print | Product List | Glossary On
Versions: 1 2 3 4 5 6 7 8 9 10 11 12 13 14 15 16 17 18 19 20 21 22 23 24 25 26 27 28
000
ASUS45 KSLC 231710
RWRUT

UTAH REGIONAL WEATHER ROUNDUP
NATIONAL WEATHER SERVICE SALT LAKE CITY UT
1000 AM MST FRI FEB 23 2018

UTZ001>011-023>025-231800-

NORTHERN UTAH

CITY           SKY/WX    TMP DP  RH WIND       PRES   REMARKS
BRIGHAM CITY   CLOUDY    26  19  72 NW10      30.00R WCI  16
HILL AFB       LGT SNOW  22  20  93 NW10      29.95R VSB 1   WCI  11
LOGAN          LGT SNOW  24  16  71 N10       30.01S WCI  14
OGDEN          LGT SNOW  23  20  88 NW15      29.95S FOG     WCI  10
SALT LAKE CITY LGT SNOW  27  23  85 NW16      29.97R VSB 3/4 WCI  15
TOOELE VALLEY  LGT SNOW  23  21  93 W22       30.01R VSB 3/4 WCI   8
WENDOVER       MOSUNNY   27  12  53 CALM      30.07R
HEBER CITY       N/A     23  14  68 NW5       29.88R WCI  17
WEST JORDAN    CLOUDY    23  23  99 NW16      29.97R VSB 3/4 WCI  10

$$

UTZ011>015-024>027-231800-

CENTRAL/NORTHEAST UTAH

CITY           SKY/WX    TMP DP  RH WIND       PRES   REMARKS
PROVO AIRPORT  CLOUDY    27  25  93 SW14      29.96R VSB 3/4 WCI  15
MOAB/CANYONLAN CLOUDY    30  28  92 E12       29.91F WCI  20
DELTA          CLOUDY    23  21  93 NW6       30.01R VSB 1   WCI  16
PRICE          LGT SNOW  24  23  96 E5        29.85F VSB 3/4 WCI  18
RICHFIELD      SUNNY     25  16  68 SW15      29.95R WCI  12
VERNAL         SNOW      25  22  88 N6        29.91F VSB 1/2 WCI  18

$$

UTZ013>016-019>022-027-231800-

SOUTHERN UTAH

CITY           SKY/WX    TMP DP  RH WIND       PRES   REMARKS
BRYCE CANYON   MOSUNNY   20  10  65 W12       29.88S WCI   8
CEDAR CITY     PTSUNNY   22  19  89 NE6       29.95R WCI  14
MILFORD        CLOUDY    26  21  81 CALM      29.98R
ST GEORGE      CLOUDY    37  34  87 S3        30.05R
HANKSVILLE     MOSUNNY   34  27  75 CALM      29.95S
KANAB          SUNNY     28  19  69 SW2       30.03S
BLANDING         N/A     28  20  74 SW5       30.03F WCI  22

$$

REGIONAL REPORTS     COLORADO/ARIZONA

CITY           SKY/WX    TMP DP  RH WIND       PRES   REMARKS
CRAIG, CO      PTSUNNY   23  13  65 NE12      29.92F WCI  12
GRAND JUNCTION PTSUNNY   33  23  66 SE18G25   29.95S WCI  22
RIFLE, CO      CLOUDY    23  22  96 CALM      29.94F
MONTROSE, CO   CLOUDY    31  12  45 E9        29.96F WCI  23
CORTEZ, CO     CLOUDY    34  13  41 SE15G23   29.99F WCI  24
COLORADO CITY    N/A     34  21  60 CALM      30.01R
PAGE, AZ       CLOUDY    33  29  85 CALM      29.98S
GRAND CANYON   LGT SNOW  23  19  85 W9        29.95S VSB 3/4 WCI  13
KINGMAN, AZ    CLOUDY    41  18  39 SW13      30.04S
FLAGSTAFF, AZ  LGT SNOW  25  20  81 SW23      29.94S WCI  10

$$

REGIONAL REPORTS    NEVADA/IDAHO/WYOMING

CITY           SKY/WX    TMP DP  RH WIND       PRES   REMARKS
LAS VEGAS, NV  MOSUNNY   45  19  35 NE3       30.03R
ELY, NY        PTSUNNY   19  12  74 NE3       29.97R
ELKO, NV       MOSUNNY   20  14  77 CALM      30.08R
POCATELLO, ID  LGT SNOW  17  13  84 W12       30.12R FOG     WCI   4
BURLEY, ID     LGT SNOW  15  10  80 W12       30.15S WCI   2
EVANSTON, WY   CLOUDY    10   6  84 E9        29.87S FOG     WCI  -3
ROCK SPRINGS,  CLOUDY    11   7  84 NE3       29.90F FOG

$$




USA.gov is the U.S. government's official web portal to all federal, state and local government web resources and services.